Owen Roberts, Cayman Islands

10:47 AM EST on August 28, 2016 (GMT -0500)
Roberts International

Weather History for MWCR - February, 2013

Change the Weather History Date:

Friday, February 1, 2013

  Actual Average Record
Temperature  
Mean Temperature 80 °F -  
Max Temperature 84 °F 81 °F 86 °F (2001)
Min Temperature 77 °F 73 °F 69 °F (1998)
Cooling Degree Days 16    
Growing Degree Days 30 (Base 50)    
Moisture  
Dew Point 74 °F    
Average Humidity 80    
Maximum Humidity 89    
Minimum Humidity 74    
Precipitation  
Precipitation 0.00 in - - ()
Sea Level Pressure  
Sea Level Pressure 30.07 in    
Wind  
Wind Speed 12 mph ()    
Max Wind Speed 15 mph    
Max Gust Speed -    
Visibility 6.2 miles    
Events      
Averages and records for this station are not official NWS values.
T = Trace of Precipitation, MM = Missing Value Source: Averaged Metar Reports

Daily Weather History Graph

Daily Weather History Graph

Search for Another Location

Airport or City:

Trip Planner

Search our weather history database for the weather conditions in past years. The results will help you decide how hot, cold, wet, or windy it might be!

Date:

Astronomy

Feb. 01, 2013 Rise Set
Actual Time 6:59 AM EST 6:18 PM EST
Civil Twilight 6:37 AM EST 6:41 PM EST
Nautical Twilight 6:10 AM EST 7:07 PM EST
Astronomical Twilight 5:44 AM EST 7:33 PM EST
Moon 11:25 PM EST (2/1) 10:26 AM EST (2/1)
Length of Visible Light 12h 04m
Length of Day
11h 18m
Waning Gibbous, 70% of the Moon is Illuminated
Feb 1
Waning Gibbous
Feb 3
Last Quarter
Feb 10
New
Feb 17
First Quarter
Feb 25
Full

Hourly Weather History & Observations

Time (EST) Temp. Heat Index Dew Point Humidity Pressure Visibility Wind Dir Wind Speed Gust Speed Precip Events Conditions
6:00 AM 78.8 °F - 73.4 °F 83% 30.06 in 6.2 mi NE 12.7 mph - N/A   Scattered Clouds
7:00 AM 79 °F - 73 °F 76% 30.07 in 6 mi NE 15.0 mph - -   Scattered Clouds
7:00 AM 78.8 °F - 73.4 °F 83% 30.06 in 6.2 mi NE 15.0 mph - N/A   Partly Cloudy
8:00 AM 78.8 °F - 75.2 °F 89% 30.06 in 6.2 mi NE 12.7 mph - N/A   Partly Cloudy
9:00 AM 80.6 °F 85.4 °F 73.4 °F 79% 30.09 in 6.2 mi NE 15.0 mph - N/A   Partly Cloudy
10:00 AM 80.6 °F 85.4 °F 73.4 °F 79% 30.12 in 6.2 mi NE 12.7 mph - N/A   Scattered Clouds
11:00 AM 82.4 °F 89.5 °F 75.2 °F 79% 30.12 in 6.2 mi NE 13.8 mph - N/A   Scattered Clouds
12:00 PM 82.4 °F 89.5 °F 75.2 °F 79% 30.09 in 6.2 mi NE 13.8 mph - N/A   Scattered Clouds
1:00 PM 82.4 °F 88.2 °F 73.4 °F 74% 30.09 in 6.2 mi NE 15.0 mph - N/A   Partly Cloudy
2:00 PM 82.4 °F 89.5 °F 75.2 °F 79% 30.06 in 6.2 mi NE 15.0 mph - N/A   Scattered Clouds
3:00 PM 82.4 °F 88.2 °F 73.4 °F 74% 30.04 in 6.2 mi NE 15.0 mph - N/A   Partly Cloudy
4:00 PM 82.4 °F 88.2 °F 73.4 °F 74% 30.04 in 6.2 mi NE 13.8 mph - N/A   Partly Cloudy
4:55 PM 80.6 °F 85.4 °F 73.4 °F 79% 30.04 in 6.2 mi NE 13.8 mph - N/A   Partly Cloudy
5:52 PM 80.6 °F 85.4 °F 73.4 °F 79% 30.04 in 6.2 mi NE 11.5 mph - N/A   Partly Cloudy
6:55 PM 78.8 °F - 73.4 °F 83% 30.06 in 6.2 mi NE 12.7 mph - N/A   Partly Cloudy
7:00 PM 79 °F - 74 °F 79% 30.07 in 6 mi NE 12.7 mph - -   Scattered Clouds
7:56 PM 78.8 °F - 73.4 °F 83% 30.06 in 6.2 mi NE 13.8 mph - N/A   Partly Cloudy
8:55 PM 78.8 °F - 73.4 °F 83% 30.09 in 6.2 mi NE 11.5 mph - N/A   Partly Cloudy
9:50 PM 78.8 °F - 71.6 °F 78% 30.09 in 6.2 mi NE 12.7 mph - N/A   Partly Cloudy